Погода Нарьян-Мар

Погода Нарьян-Мар : погода сейчас, прогноз погоды и архив. Всё, что Вы хотите узнать о погоде Нарьян-Мар!

Хотите узнать прогноз погоды Нарьян-Мар? Тогда Вам сюда: Погода Нарьян-Мар

Поиск расширенной информации на нашем сайте:

Другие новости

Новости СМИ2

Главная страница сайта

Новости сайта

02.10.2013

Напоминаем, что на нашем новом сайте вы можете получить высокодетализированные прогнозы погоды по пунктам России, СНГ и мира (включающие важные для авиации метеовеличины, такие как направление и скорость ветра, видимость, явления погоды, количество и форма облачности, нижняя и верхняя граница облачности), а также ознакомиться с разнообразными материалами по авиационной метеорологии и подборкой полезных ссылок на эту тему.

Сайт Метеоцентр.Азия посвящён разработке технологий оптимизации авиаметеорологического обслуживания, включая проектирование и перспективное создание нескольких автоматизированных авиаметеорологических систем:
- система выпуска высокодетальных прогностических карт явлений погоды для нижнего воздушного пространства по России и ближнему зарубежью;
- система верификации прогнозов TAF (выпускаемых синоптиками официальных АМСГ РФ и ближнего зарубежья) и AUTOTAF (выпускаемых сайтом Метеоцентр.Азия) - выявление ошибок, онлайн-сопоставление с фактической погодой METAR, автоматическое внесение коррективов в прогнозы при резком отклонении фактической погоды от прогноза, подсчёт оправдываемости прогнозов по элементам и в целом;
- система обработки, анализа и отображения авиаметеорологической информации для применения провайдерами метеорологической информации.


Погода Нарьян-Мар - сегодня

Время (UTC), дата Ветер
(°,м/с) 
Видим.   Явления Облачность Т
(°С)
Тd
(°С)
f(%) Тe
(°С)
Pmin
(гПа)
dP
(гПа)
Po
(мм)
O2
(г/м3)
Тmin Tmax R s Состояние
почвы
18 27.03.17 150 (ЮВ) 4000 м  слаб. снег  10/9 360 м средняя 
[Frnb|As op]
-4.6 -5.9 91 -4  980.3  -1.1  734  301           
21 27.03.17 180 (Ю) 20000 м  {снег}  10/10 1300 м 
[Sc]
-3.7 -5 91 -6  979.2  -1.1  733  300           
00 28.03.17 160 (Ю) 4000 м  слаб. снег  10/9 330 м средняя 
[Frnb|As op]
-3.4 -4.6 91 -5  978.4  -0.7  733  299           
03 28.03.17 070 (В) 4000 м  слаб. ливневой снег  10/10 540 м кучево-дожд. 
[Cb calv]
-3 -3.7 95 -4  977.9  -0.5  732  299  -5.1    44  неравномерный
сухой снег
100% 
06 28.03.17 050 (СВ) 2000 м  слаб. ливневой снег  10/10 270 м кучево-дожд. 
[Cb cap]
-1.4 -2.7 91 -1  978.3  0.4  733  297           
09 28.03.17 340 (С) 4000 м  слаб. ливневой снег  10/9 420 м кучево-дожд., средняя 
[Cb cap|Ac und]
-1.7 -3.6 87 -4  980.2  1.9  734  298           
12 28.03.17 290 (З) 2000 м  слаб. ливневой снег  10/9 420 м кучево-дожд., средняя 
[Cb cap|Ac und]
-1.9 -3 92 -5  982.1  1.8  736  299           
15 28.03.17 270 (З) 4000 м  слаб. ливневой снег  9/8 420 м кучево-дожд., средняя 
[Cb cap|Ac trans]
-3.9 -5.2 91 -6  983.8  1.7  737  302    -1.3     
18 28.03.17 200 (Ю) 20000 м  {ливн. осадки}  3/0 верхняя 
[Ci fib]
-8.4 -10.3 86 -10  983.7  -0.2  737  307           
21 28.03.17 190 (Ю) 20000 м    8/0 средняя, верхняя 
[Ac trans|Ci fib]
-9.3 -10.9 88 -12  982.1  -1.6  736  308           
00 29.03.17 160 (Ю) 20000 м    10/8 400 м кучево-дожд., средняя 
[Cb cap|Ac trans]
-7.1 -9.1 86 -10  980.3  -1.8  734  305           
03 29.03.17 тихо ()   4000 м  слаб. ливневой снег  9/8 500 м кучево-дожд., средняя 
[Cb cap|Ac trans]
-6.7 -8.4 88 -7  979.9  -0.3  734  304  -9.5    0.0  47  неравномерный
сухой снег
100% 
06 29.03.17 280 (З) 4000 м  слаб. ливневой снег  10/10 270 м кучево-дожд. 
[Cb cap]
-4.8 -6.7 87 -7  981  1.1  735  302           
09 29.03.17 250 (З) 2000 м  слаб. ливневой снег  10/10 600 м кучево-дожд. 
[Cb calv]
-2.7 -5.9 79 -6  982.3  1.3  736  300           
12 29.03.17 210 (ЮЗ) 5{10}  2000 м  слаб. ливневой снег  10/10 480 м кучево-дожд. 
[Cb calv]
-2.4 -6 76 -6  983.2  0.9  736  300           
15 29.03.17 190 (Ю) 4000 м  слаб. ливневой снег  9/8 570 м кучево-дожд., средняя 
[Cb cap|Ac cuf]
-3.7 -5.7 86 -3  984  0.8  737  302    -2  0.4     
18 29.03.17 280 (З) 4000 м  слаб. ливневой снег  10/10 330 м кучево-дожд. 
[Cb cap]
-5.5 -6.4 93 -5  984.8  0.8  738  304           
21 29.03.17 270 (З) 4000 м  слаб. ливневой снег  10/10 240 м кучево-дожд. 
[Cb cap]
-6.3 -7.2 93 -6  985.6  0.8  738  305           
00 30.03.17 300 (СЗ) 6-10{11}  20000 м  позёмок{ливн. осадки}  10/10 1000 м 
[Sc]
-4.4 -6.3 87 -9  986.9  1.3  739  303           
03 30.03.17 300 (СЗ) 8-13{13}  4000 м  слаб. ливневой снег  10/10 570 м кучево-дожд. 
[Cb calv]
-4.8 -6.1 91 -10  987.7  0.8  740  304  -7.5    50  неравномерный
сухой снег
100% 
06 30.03.17 310 (СЗ) 8-12{15}  0500 м  ливневой снег  10/10 330 м кучево-дожд. 
[Cb cap]
-4.5 -5.6 92 -10  990.1  2.4  742  304           
09 30.03.17 310 (СЗ) 8-13{14}  4000 м  метель{ливн. осадки}  10/6 420 м кучево-дожд., верхняя 
[Cb cap|Ci fib]
-4.5 -6.7 85 -10  993.2  3.1  744  305           
12 30.03.17 310 (СЗ) 7-13{15}  4000 м  слаб. ливневой снег  10/10 450 м кучево-дожд. 
[Cb calv]
-5.2 -7.2 86 -10  996  2.7  746  307           
15 30.03.17 310 (СЗ) 7-12{14}  4000 м  метель{ливн. осадки}  9/6 570 м средняя, верхняя 
[Sc|Ac trans|Ci fib]
-6.3 -9.3 79 -11  998.4    748  309    -4.1  0.9     
18 30.03.17 310 (СЗ) 5{12}  4000 м  слаб. ливневой снег  9/9 300 м кучево-дожд. 
[Cb cap]
-8.2 -10.1 86 -13  1000.4  749  312           
Время (UTC), дата Ветер
(°,м/с) 
Видим.   Явления Облачность Т
(°С)
Тd
(°С)
f(%) Тe
(°С)
Pmin
(гПа)
dP
(гПа)
Po
(мм)
O2
(г/м3)
Тmin Tmax R s Состояние
почвы

Для получения пояснительной информации подведите курсор к названию столбца.

ПОГОДА Нарьян-Мар - архив

Всё, что Вы хотите узнать о погоде Нарьян-Мар - удобно и подробно!

Выберите нужную дату (начиная с 1 января 2015* года) и нажмите кнопку "Найти".
Будут отображены архивные сводки погоды по пункту Нарьян-Мар, начиная с указанной даты.


Отображать данные в формате CSV (для использования в таблицах Excel)


Внимание! Наш архив погоды предназначен исключительно для личного некоммерческого использования в познавательных целях. Если Вам необходимы официальные справки о состоянии погоды (для производственных, юридических, коммерческих и т.п. целей), обращайтесь в органы Росгидромета.

*Примечание: данная дата относится к архиву по метеостанциям СССР (Россия, СНГ, Балтия).
Архив по метеостанциям Зарубежной Европы и Азии (кроме Китая) хранится 10 дней, по другим регионам земного шара (Китай, Африка, Америка, Австралия, Океания) - 1 день.

Нарьян-Мар - район местоположения метеостанции


Название, широта, долгота, высота метеостанции:
Нарьян-Мар 67.6°ш. 53°д. 12 м над ур. моря [Российская Федерация]

Дополнительная информация

В oтличие oт бoльшинства пoгoдных сайтoв мы публикуем пoдрoбную метеoинфoрмацию в детальнoм прoфессиoнальнoм фoрмате.

Характеристики температуры и влажнoсти вoздуха измеряются на высoте 2 м в тени вдали oт зданий и деревьев.
Скoрoсть ветра измеряется на высoте 10 м (на урoвне рoста челoвека скoрoсть ветра ниже в 1.5-2 раза). Если метеoстанция нахoдится в гoрoде или в лесу, тo скoрoсть ветра занижена на 2-4 м/с пo сравнению с oткрытым местoм. Скoрoсть ветра над акватoриями крупных рек и oзёр, а также на вершинах хoлмoв на 2-5 м/с выше, чем в oбычных услoвиях.
Атмoсфернoе давление в разных тoчках местнoсти мoжет значительнo oтличаться oт давления на метеoстанции, в зависимoсти oт услoвий рельефа (при пoдъёме на 10 м давление пoнижается примернo на 1 мм рт.ст.).